Location: Boiro
(42.6475°N, 8.8834°W)
Time: 23:58:39
(UTC+01:00)

Vanguard 2 Rocket - Pass Details

Date: 12 December 2021
Orbit: 553 x 3325 km, 32.9° (Epoch: 26 January)

Event Time Altitude Azimuth Distance (km) Brightness Sun altitude
Rises 21:44:13 0° 261° (W) 3,438 10.7 -39.9°
Reaches altitude 10° 21:46:51 10° 246° (WSW) 2,777 9.9 -40.4°
Enters shadow 21:51:00 23° 207° (SSW) 2,406 9.1 -41.1°
